Satellite: GO-32
Catalog number: 25397
Epoch time:      09006.78950788
Element set:    0791
Inclination:      098.3431 deg
RA of node:       037.6538 deg
Eccentricity:    0.0001605
Arg of perigee:   041.7241 deg
Mean anomaly:     318.4044 deg
Mean motion:   14.23152321 rev/day
Decay rate:      -1.94e-06 rev/day^2
Epoch rev:           54517
Checksum:              301

Satellite: NO-44
Catalog number: 26931
Epoch time:      09008.62914580
Element set:      69
Inclination:      067.0509 deg
RA of node:       115.4035 deg
Eccentricity:    0.0005874
Arg of perigee:   255.9198 deg
Mean anomaly:     104.1206 deg
Mean motion:   14.29544173 rev/day
Decay rate:      -1.05e-06 rev/day^2
Epoch rev:           37977
Checksum:              309

Satellite: SO-50
Catalog number: 27607
Epoch time:      09008.53816471
Element set:     785
Inclination:      064.5570 deg
RA of node:       149.9676 deg
Eccentricity:    0.0081596
Arg of perigee:   239.5538 deg
Mean anomaly:     119.7430 deg
Mean motion:   14.71406649 rev/day
Decay rate:       -6.8e-07 rev/day^2
Epoch rev:           32518
Checksum:              344

Satellite: CO-55
Catalog number: 27844
Epoch time:      09008.53625662
Element set:     483
Inclination:      098.7157 deg
RA of node:       019.9452 deg
Eccentricity:    0.0009100
Arg of perigee:   242.9499 deg
Mean anomaly:     117.0749 deg
Mean motion:   14.20616255 rev/day
Decay rate:        3.2e-07 rev/day^2
Epoch rev:           28659
Checksum:              325

Satellite: CO-57
Catalog number: 27848
Epoch time:      09006.94199549
Element set:    0430
Inclination:      098.7157 deg
RA of node:       017.4399 deg
Eccentricity:    0.0009147
Arg of perigee:   253.3283 deg
Mean anomaly:     106.6893 deg
Mean motion:   14.20421358 rev/day
Decay rate:        1.6e-07 rev/day^2
Epoch rev:           28633
Checksum:              333

Satellite: AO-51
Catalog number: 28375
Epoch time:      09008.01082332
Element set:     286
Inclination:      098.0570 deg
RA of node:       026.9131 deg
Eccentricity:    0.0083003
Arg of perigee:   251.7393 deg
Mean anomaly:     107.4750 deg
Mean motion:   14.40629701 rev/day
Decay rate:      .00000000 rev/day^2
Epoch rev:           23789
Checksum:              268

Satellite: CO-56
Catalog number: 28941
Epoch time:      09008.10141860
Element set:     705
Inclination:      098.1234 deg
RA of node:       154.8814 deg
Eccentricity:    0.0127914
Arg of perigee:   011.0507 deg
Mean anomaly:     349.3462 deg
Mean motion:   15.69003479 rev/day
Decay rate:     2.6651e-04 rev/day^2
Epoch rev:           16203
Checksum:              296

Satellite: CP3
Catalog number: 31128
Epoch time:      09006.83332310
Element set:    0525
Inclination:      098.0155 deg
RA of node:       067.3746 deg
Eccentricity:    0.0103899
Arg of perigee:   065.4384 deg
Mean anomaly:     295.7618 deg
Mean motion:   14.52007682 rev/day
Decay rate:       -4.6e-07 rev/day^2
Epoch rev:           09148
Checksum:              305

Satellite: CP4
Catalog number: 31132
Epoch time:      09006.90368134
Element set:    0512
Inclination:      098.0199 deg
RA of node:       070.6265 deg
Eccentricity:    0.0086738
Arg of perigee:   056.1524 deg
Mean anomaly:     304.7884 deg
Mean motion:   14.55173256 rev/day
Decay rate:        3.0e-08 rev/day^2
Epoch rev:           09157
Checksum:              297

Satellite: CO-65
Catalog number: 32785
Epoch time:      09006.09180604
Element set:    0258
Inclination:      097.9692 deg
RA of node:       071.2234 deg
Eccentricity:    0.0014627
Arg of perigee:   194.2315 deg
Mean anomaly:     165.8491 deg
Mean motion:   14.81435706 rev/day
Decay rate:       3.05e-06 rev/day^2
Epoch rev:           03744
Checksum:              309

/EX
SB KEPS @ AMSAT  $ORB09008.W
Orbital Elements  09008.WEATHER

HR AMSAT ORBITAL ELEMENTS FOR WEATHER SATELLITES
FROM WA5QGD FORT WORTH,TX January 8, 2009
Send Subscribe/unsubscribe to KEPS at 
http://www.amsat.org/mailman/listinfo/keps
BID: ORB09008.W
TO ALL RADIO AMATEURS BT

Satellite: NOAA-10
Catalog number: 16969
Epoch time:      09006.79137733
Element set:    0447
Inclination:      098.7087 deg
RA of node:       034.1934 deg
Eccentricity:    0.0011718
Arg of perigee:   310.4848 deg
Mean anomaly:     049.5283 deg
Mean motion:   14.27376831 rev/day
Decay rate:       -5.5e-07 rev/day^2
Epoch rev:           16048
Checksum:              325

Satellite: NOAA-11
Catalog number: 19531
Epoch time:      09007.82265385
Element set:     466
Inclination:      098.7904 deg
RA of node:       100.2354 deg
Eccentricity:    0.0011164
Arg of perigee:   202.2457 deg
Mean anomaly:     157.8237 deg
Mean motion:   14.14883874 rev/day
Decay rate:      -2.46e-06 rev/day^2
Epoch rev:            4684
Checksum:              305

Satellite: NOAA-12
Catalog number: 21263
Epoch time:      09006.95805527
Element set:    0985
Inclination:      098.7720 deg
RA of node:       014.9459 deg
Eccentricity:    0.0011517
Arg of perigee:   254.3739 deg
Mean anomaly:     105.6170 deg
Mean motion:   14.25561643 rev/day
Decay rate:        2.4e-07 rev/day^2
Epoch rev:           91742
Checksum:              305

